Regional Weather Roundup
Issued by NWS

Home | Current Version | Previous Version | Graphics & Text | Print | Product List | Glossary On
Versions: 1 2 3 4 5 6 7 8 9 10 11 12 13 14 15 16 17 18 19 20 21 22 23 24 25 26 27 28 29 30 31 32 33 34 35 36 37 38 39 40 41 42 43 44 45 46 47 48 49 50
693
ASUS43 KBIS 160210
RWRND

NORTH DAKOTA REGIONAL WEATHER ROUNDUP
NATIONAL WEATHER SERVICE BISMARCK ND
800 PM CST FRI DEC 15 2017

NOTE: "FAIR" INDICATES FEW OR NO CLOUDS BELOW 12,000 FEET WITH NO
SIGNIFICANT WEATHER AND/OR OBSTRUCTIONS TO VISIBILITY.


NDZ001>003-009>011-017-160300-
NORTHWEST NORTH DAKOTA

CITY           SKY/WX    TMP DP  RH WIND       PRES   REMARKS
WILLISTON        N/A    N/A N/A N/A MISG      29.59R
MINOT          CLOUDY    44  30  57 W15       29.51R
MINOT AFB      CLOUDY    41  30  65 NW15      29.50R
$$

NDZ018>021-031>035-040>046-160300-
SOUTHWEST NORTH DAKOTA

CITY           SKY/WX    TMP DP  RH WIND       PRES   REMARKS
BISMARCK       CLOUDY    39  26  59 W7        29.56S
DICKINSON      CLOUDY    36  22  56 W12       29.57R
GARRISON         N/A     41  25  53 NW17      29.53R
HETTINGER ARPT CLOUDY    35  20  54 NW8       29.62R
$$

NDZ004>008-012>016-024-026-027-054-160300-
NORTHEAST NORTH DAKOTA

CITY           SKY/WX    TMP DP  RH WIND       PRES   REMARKS
GRAND FORKS    LGT SNOW  23  21  92 E10       29.63F FOG     WCI  12
GRND FRKS AFB  LGT SNOW  23  21  93 SE12      29.61F FOG     WCI  12
DEVILS LAKE    FLURRIES  27  25  92 SE10      29.55R WCI  17
$$

NDZ022-023-025-028>030-036>039-047>053-160300-
SOUTHEAST NORTH DAKOTA

CITY           SKY/WX    TMP DP  RH WIND       PRES   REMARKS
FARGO          LGT SNOW  29  27  92 SE10      29.60F FOG     WCI  20
JAMESTOWN      CLOUDY    32  30  92 S7        29.52F
$$





USA.gov is the U.S. government's official web portal to all federal, state and local government web resources and services.